Weather History for Buffalo, WY

Change the Weather History Date:

Monday, October 22, 2012

  Actual Average Record
Temperature  
Mean Temperature 6 °C 7 °C  
Max Temperature 10 °C 13 °C 25 °C (2003)
Min Temperature 2 °C 1 °C -8 °C (2002)
Degree Days  
Heating Degree Days 23 21  
Month to date heating degree days 390  
Since 1 July heating degree days 704  
Cooling Degree Days 0 0  
Month to date cooling degree days 0  
Year to date cooling degree days 491  
Growing Degree Days 0 (Base 50)    
Moisture  
Dew Point 4 °C    
Average Humidity 89    
Maximum Humidity 100    
Minimum Humidity 82    
Precipitation  
Precipitation 1.02 mm 0.76 mm 0.23 mm (2002)
Month to date precipitation 0.80  
Year to date precipitation 12.38  
Sea Level Pressure  
Sea Level Pressure 1006 hPa    
Wind  
Wind Speed 16 km/h (SSE)    
Max Wind Speed 34 km/h    
Max Gust Speed 45 km/h    
Visibility 14 kilometers    
Events Fog , Rain    
T = Trace of Precipitation, MM = Missing Value Source: NWS Daily Summary

Daily Weather History Graph

Daily Weather History Graph

Search for Another Location

Airport:

Trip Planner

Search our weather history database for the weather conditions in past years. The results will help you decide how hot, cold, wet, or windy it might be!

Date:

Astronomy

Oct. 22, 2012 Rise Set
Actual Time 7:31 AM MDT 6:10 PM MDT
Civil Twilight 7:01 AM MDT 6:39 PM MDT
Nautical Twilight 6:28 AM MDT 7:13 PM MDT
Astronomical Twilight 5:54 AM MDT 7:47 PM MDT
Moon 2:34 PM MDT (10/22) 12:05 AM MDT (10/22)
Length of Visible Light 11h 37m
Length of Day
10h 38m
First Quarter, 57% of the Moon is Illuminated
Oct 22
First Quarter
Oct 29
Full
Nov 6
Last Quarter
Nov 13
New
Nov 20
First Quarter

Hourly Weather History & Observations

Time (MDT) Temp. Windchill Dew Point Humidity Pressure Visibility Wind Dir Wind Speed Gust Speed Precip Events Conditions
12:53 AM 2.2 °C -1.3 °C 0.6 °C 89% 1011.2 hPa 16.1 km SE 13.0 km/h / 3.6 m/s - N/A   Clear
1:53 AM 3.3 °C -0.3 °C 1.7 °C 89% 1010.3 hPa 16.1 km SSE 14.8 km/h / 4.1 m/s - N/A   Clear
2:53 AM 3.3 °C -0.6 °C 1.7 °C 89% 1009.9 hPa 16.1 km SSE 16.7 km/h / 4.6 m/s - N/A   Clear
3:53 AM 5.0 °C 0.1 °C 2.8 °C 86% 1008.8 hPa 16.1 km South 29.6 km/h / 8.2 m/s - N/A   Partly Cloudy
4:53 AM 3.9 °C 1.1 °C 1.7 °C 86% 1009.3 hPa 16.1 km NNW 11.1 km/h / 3.1 m/s - N/A   Partly Cloudy
5:53 AM 2.8 °C -0.9 °C 1.7 °C 93% 1010.6 hPa 16.1 km NNW 14.8 km/h / 4.1 m/s - N/A   Clear
6:53 AM 2.8 °C -0.6 °C 1.7 °C 93% 1010.7 hPa 16.1 km NW 13.0 km/h / 3.6 m/s - N/A   Mostly Cloudy
7:53 AM 3.3 °C 1.3 °C 1.7 °C 89% 1011.6 hPa 16.1 km West 7.4 km/h / 2.1 m/s - 0.0 mm Rain Light Rain
8:53 AM 3.9 °C - 2.8 °C 93% 1011.2 hPa 14.5 km Calm Calm - 0.3 mm Rain Light Rain
9:53 AM 5.0 °C - 3.9 °C 93% 1010.7 hPa 16.1 km Calm Calm - 0.3 mm Rain Light Rain
10:51 AM 6.0 °C 3.7 °C 4.0 °C 87% 1010.0 hPa 1.2 km ESE 11.1 km/h / 3.1 m/s - 0.5 mm Rain Light Rain
11:02 AM 4.0 °C 0.9 °C 4.0 °C 100% 1009.7 hPa 0.8 km SE 13.0 km/h / 3.6 m/s - 0.0 mm Fog , Rain Light Rain
11:05 AM 5.0 °C 2.1 °C 4.0 °C 93% 1009.7 hPa 2.0 km SE 13.0 km/h / 3.6 m/s - 0.0 mm Rain Light Rain
11:07 AM 5.0 °C 1.8 °C 4.0 °C 93% 1009.7 hPa 6.4 km SE 14.8 km/h / 4.1 m/s - 0.0 mm Rain Light Rain
11:53 AM 6.1 °C 3.4 °C 5.6 °C 97% 1009.3 hPa 14.5 km SSE 13.0 km/h / 3.6 m/s - 0.3 mm Rain Light Rain
12:07 PM 7.0 °C 4.0 °C 6.0 °C 93% 1009.0 hPa 14.5 km SE 16.7 km/h / 4.6 m/s - 0.0 mm Rain Light Rain
12:53 PM 7.8 °C 5.2 °C 6.7 °C 93% 1008.0 hPa 16.1 km SSE 14.8 km/h / 4.1 m/s - 0.0 mm Rain Light Rain
1:53 PM 8.3 °C - 6.7 °C 90% 1006.0 hPa 16.1 km South 22.2 km/h / 6.2 m/s 33.3 km/h / 9.3 m/s 0.0 mm Rain Light Rain
2:44 PM 9.0 °C - 6.0 °C 82% 1005.3 hPa 16.1 km SSE 27.8 km/h / 7.7 m/s 42.6 km/h / 11.8 m/s 0.0 mm   Mostly Cloudy
2:53 PM 8.9 °C - 6.1 °C 83% 1004.6 hPa 16.1 km SSE 29.6 km/h / 8.2 m/s 40.7 km/h / 11.3 m/s 0.0 mm   Mostly Cloudy
3:17 PM 8.0 °C 3.7 °C 6.0 °C 87% 1004.3 hPa 16.1 km SSE 33.3 km/h / 9.3 m/s 42.6 km/h / 11.8 m/s N/A   Mostly Cloudy
3:37 PM 8.0 °C 3.7 °C 6.0 °C 87% 1004.3 hPa 16.1 km SSE 33.3 km/h / 9.3 m/s 42.6 km/h / 11.8 m/s N/A   Overcast
3:53 PM 8.9 °C - 6.1 °C 83% 1002.7 hPa 16.1 km SSE 33.3 km/h / 9.3 m/s 44.4 km/h / 12.3 m/s N/A   Overcast
4:50 PM 9.0 °C - 6.0 °C 82% 1002.9 hPa 16.1 km SSE 29.6 km/h / 8.2 m/s 44.4 km/h / 12.3 m/s 0.3 mm   Overcast
4:53 PM 8.9 °C - 6.7 °C 86% 1001.9 hPa 16.1 km SSE 25.9 km/h / 7.2 m/s 40.7 km/h / 11.3 m/s 0.3 mm Rain Light Rain
5:46 PM 8.0 °C 3.9 °C 6.0 °C 87% 1002.6 hPa 16.1 km South 31.5 km/h / 8.7 m/s 44.4 km/h / 12.3 m/s 0.0 mm Rain Light Rain
5:53 PM 8.3 °C - 6.1 °C 86% 1001.9 hPa 16.1 km South 33.3 km/h / 9.3 m/s - 0.0 mm Rain Light Rain
6:00 PM 8.0 °C 4.0 °C 7.0 °C 93% 1002.3 hPa 16.1 km SSE 29.6 km/h / 8.2 m/s - 0.0 mm Rain Light Rain
6:53 PM 8.3 °C - 6.1 °C 86% 1001.2 hPa 16.1 km SSE 27.8 km/h / 7.7 m/s - 0.0 mm   Clear
7:53 PM 7.8 °C 4.8 °C 6.1 °C 89% 1001.0 hPa 16.1 km ESE 18.5 km/h / 5.1 m/s - N/A   Clear
8:53 PM 6.1 °C 2.9 °C 5.0 °C 93% 1002.8 hPa 16.1 km North 16.7 km/h / 4.6 m/s 44.4 km/h / 12.3 m/s N/A   Scattered Clouds
9:19 PM 6.0 °C 3.3 °C 5.0 °C 93% 1003.3 hPa 16.1 km NNW 13.0 km/h / 3.6 m/s - 0.0 mm Rain Light Rain
9:32 PM 6.0 °C 3.0 °C 4.0 °C 87% 1003.3 hPa 16.1 km WNW 14.8 km/h / 4.1 m/s - 0.0 mm   Mostly Cloudy
9:40 PM 6.0 °C 4.5 °C 4.0 °C 87% 1003.3 hPa 16.1 km NW 7.4 km/h / 2.1 m/s - 0.0 mm   Mostly Cloudy
9:50 PM 6.0 °C 3.7 °C 4.0 °C 87% 1003.3 hPa 16.1 km WNW 11.1 km/h / 3.1 m/s - 0.0 mm   Scattered Clouds
9:53 PM 5.6 °C 2.8 °C 4.4 °C 92% 1002.9 hPa 16.1 km WNW 13.0 km/h / 3.6 m/s - 0.0 mm   Scattered Clouds
10:53 PM 7.8 °C 6.2 °C 5.0 °C 83% 1002.3 hPa 16.1 km Variable 9.3 km/h / 2.6 m/s - N/A   Mostly Cloudy